GSAT-16                 
1 40332U 14078A   19261.49695080  .00000081  00000-0  00000+0 0  9990
2 40332   0.0224 125.0916 0005528 346.5891 119.4150  1.00273016 17551
DIRECTV 14              
1 40333U 14078B   19261.54817108 -.00000129  00000-0  00000+0 0  9998
2 40333   0.0186 171.0224 0001154 181.7705 102.4776  1.00269399 17540
ARIANE 5 R/B            
1 40334U 14078C   19257.02589314  .00000507  00000-0  12640-3 0  9998
2 40334   5.9612 152.8804 7143072 267.9686  16.5225  2.46436571 41694